STARLINK-11520, 62834

Orbit data source: Space-Track

STARLINK-11520, 62834 is a payload satellite owned by SpaceX/Seattle (US) in LEO that was launched on Mon, 27 Jan 2025 UTC via an FALCON 9 launch vehicle from the Air Force Eastern Test Range (AFETR). Payload-class satellites include a variety of spacecraft equipped with specific instruments for various scientific and technological missions. These include communications satellites like Starlink; space stations such as the ISS; scientific satellites like the Hubble; Earth observation satellites from companies like Planet Labs, Umbra, and HawkEye 360; GPS; miniature CubeSats for education and research; and military/defense satellites.

Loading next visibility...
Identifier
62834, 2025-019F
Orbit
LEO
Last TLE update
14 hours ago
Origin
Manufacturer
SpaceX/Seattle
Mission
Operational Commercial Communications
Bus & Motor
STARLINK V2M, Unknown motor
Mass
730 kg wet, ~700 kg dry
Launch date (UTC)
2025-01-27 (5 months ago)
Launch vehicle
FALCON 9
Launch site
Air Force Eastern Test Range (AFETR)
Object type
Payload
Rocket body
Debris
Shape & HBR
Box + 2 Pan, 29 m
Radar Cross Section
36.964 m², Large (>1 m²)

Expand to show TLE details & history

TLE from 14 hours ago
0 STARLINK-11520
1 62834U 25019F   25183.23864299  .00033133  00000-0  26067-3 0  9999
2 62834  43.0015  15.4112 0002988 262.2620  97.7908 15.70837297 24509
Epoch: 2025-07-02T05:43Z
TLE epoch observation values (Epoch: 2025-07-02T05:43:38.754Z)
Latitude
-0.00004°
Longitude
8.97707°
Altitude
356.547 km
Speed
7.697 km/s
True Right ascension
01h 01m 38s
True Declination
0° 00' 00"
Sunlit
Object was in daylight at epoch
Visualization orbit readout
Latitude
8.77941°
Longitude
175.86968°
Altitude
355.77 km
Speed
7.698 km/s
Apparent Right ascension
15h 06m 44s
Apparent Declination
-25° 53' 28"
Sunlit
Object is in daylight
Visualization observer readout
Local Sidereal Time
07:54:08
Azimuth
100.284° ESE
Elevation
-29.677°
Doppler factor
1
Orbital elements
Apogee altitude
360.497 km
Perigee altitude
356.471 km
Semi-major axis
6,736.621 km
Eccentricity
0.0003
Inclination
43.0015°
RAAN
15.4112°
Arg. of periapsis
262.262°
True anomaly
Unknown
Mean anomaly
97.7908°
Eccentric anomaly
Unknown
Mean motion
3.92536 °/min
Orbital period
91.71 mins
BSTAR
0.00026067
Loading maneuver chart data...
Loading SW <> Apogee altitude chart data...
Loading historical data...
Loading historical data...
Loading historical data...
Loading historical data...
Loading historical data...
Loading historical data...
Loading historical data...

STARLINK-11520 Visibility forecast

Observer location: undefined°, undefined°

Span
Click to sort rows by Start time (UTC) header in descending order
Start Az.
Max El. time (UTC)
Max El. Az.
Max El.
End time (UTC)
End Az.
4 mins2025-07-02 21:27:09.105Z273.624° WNW2025-07-02 21:29:09.105Z199.095° SSW35.702°2025-07-02 21:31:09.105Z135.582° SSE
4 mins2025-07-03 17:06:09.105Z260.76° W2025-07-03 17:08:09.105Z27.848° NE43.04°2025-07-03 17:10:09.105Z68.646° E
|